[[{"header":{"parameterUnit":"m.s-1","parameterCategory":1,"la1":30.2991,"la2":30.254,"lo1":-89.0895,"lo2":-89.0444,"dy":0.0017,"dx":0.0017,"nx":28,"ny":28,"refTime":"2024-04-26T03:00:00:Z","depth":0,"parameterNumber":2,"parameterNumberName":"U-component_of_WINDS"},"data":[0,0,0,0,0,0,0,0,0,0,0,0,0,0,0,0,0,0,0,0,0,0,0,0,0,0,0,0,0,0,0,0,0,0,0,0,0,0,0,0,0,0,0,0,0,0,0,0,0,0,0,0,0,0,0,0,0,0,-0.6942,-0.6942,0,-0.6921,-0.6921,-0.6921,-0.6888,-0.6888,-0.6887,-0.6887,-0.6866,-0.6866,-0.6866,0,0,0,0,0,0,0,0,0,0,0,0,0,-0.6956,-0.6955,-0.6942,-0.6942,-0.6942,-0.6921,-0.6921,-0.6921,-0.6888,-0.6888,-0.6887,-0.6886,-0.6866,-0.6866,-0.6866,0,0,0,0,0,0,0,0,0,0,0,0,0,-0.6944,-0.6955,-0.6942,-0.6923,-0.6921,-0.6921,-0.6921,-0.6921,-0.6889,-0.6888,-0.6887,-0.6886,-0.6866,-0.6866,-0.6866,-0.6883,0,0,-0.6866,-0.6866,0,0,0,0,0,0,0,0,-0.6944,-0.6943,-0.6926,-0.6925,-0.6922,-0.6907,-0.6918,-0.6908,-0.6889,-0.6901,-0.6887,-0.6886,-0.688,-0.6879,-0.6877,-0.6882,-0.6881,-0.6866,-0.6866,-0.6866,-0.6866,0,0,0,0,0,0,0,-0.6945,-0.6944,-0.6934,-0.6926,-0.6924,-0.6916,-0.6913,-0.6916,-0.6896,-0.69,-0.6898,-0.6895,-0.6879,-0.6877,-0.6876,-0.6881,-0.6866,-0.6866,-0.6866,-0.6866,-0.69,-0.6901,0,0,0,0,0,0,-0.6949,-0.6945,-0.6935,-0.6933,-0.6931,-0.6917,-0.6914,-0.6913,-0.6896,-0.6892,-0.6896,-0.6894,-0.6877,-0.6876,-0.6875,-0.6895,-0.6866,-0.6866,-0.6866,-0.6899,-0.6901,-0.6902,0,0,0,0,0,0,-0.6949,-0.6948,-0.6936,-0.6939,-0.6936,-0.6917,-0.6916,-0.6913,-0.6911,-0.6893,-0.6889,-0.6898,-0.6877,-0.6875,-0.6882,-0.6894,-0.6866,-0.6866,-0.6898,-0.69,-0.6901,-0.6935,0,0,0,0,0,0,-0.695,-0.6949,-0.6955,-0.6939,-0.6936,-0.6942,-0.6917,-0.6913,-0.6911,-0.6908,-0.6893,-0.689,-0.6876,-0.6882,-0.6882,-0.6893,-0.6866,-0.6897,-0.6899,-0.6901,-0.6933,-0.6937,-0.6941,0,0,0,0,0,-0.695,-0.6965,-0.6955,-0.6954,-0.6944,-0.6943,-0.6941,-0.6924,-0.6912,-0.6918,-0.6907,-0.6891,-0.6893,-0.6883,-0.6882,-0.6894,-0.6896,-0.6898,-0.69,-0.6931,-0.6936,-0.6941,0,0,0,0,0,0,-0.6983,-0.6963,-0.6952,-0.6962,-0.6954,-0.6937,-0.6945,-0.6931,-0.6927,-0.6924,-0.6904,-0.6901,-0.691,-0.6902,-0.6892,-0.6911,-0.6892,-0.6894,-0.6915,-0.692,-0.6925,-0.6927,-0.6866,0,0,0,0,0,-0.6992,-0.6992,-0.6975,-0.6985,-0.6982,-0.6964,-0.6963,-0.6951,-0.6942,-0.6939,-0.6928,-0.6921,-0.692,-0.692,-0.6918,-0.6931,-0.6928,-0.6939,-0.6944,-0.6947,-0.695,-0.6957,-0.6962,-0.6908,-0.6908,-0.6908,0,0,-0.7009,-0.6998,-0.7,-0.6992,-0.6984,-0.6986,-0.6962,-0.6965,-0.6966,-0.694,-0.6945,-0.6937,-0.6927,-0.6938,-0.6942,-0.6932,-0.6964,-0.695,-0.6953,-0.6953,-0.696,-0.6965,-0.6969,-0.691,-0.691,-0.6909,0,0,-0.7042,-0.7033,-0.7042,-0.7035,-0.7024,-0.7012,-0.7014,-0.7,-0.6993,-0.6998,-0.6979,-0.698,-0.6978,-0.6973,-0.697,-0.7001,-0.6986,-0.7001,-0.7024,-0.7031,-0.7035,-0.7039,-0.7051,-0.7055,-0.7003,-0.7003,-0.7003,0,-0.7065,-0.7067,-0.7048,-0.7052,-0.7049,-0.7025,-0.7034,-0.7028,-0.7018,-0.7017,-0.7006,-0.7004,-0.6995,-0.7004,-0.7012,-0.701,-0.7012,-0.7002,-0.7036,-0.704,-0.7043,-0.7054,-0.7058,-0.7005,-0.7005,-0.7004,-0.7004,0,-0.7096,-0.7098,-0.7106,-0.7096,-0.7094,-0.7101,-0.7083,-0.7083,-0.7071,-0.706,-0.7066,-0.7055,-0.7051,-0.7052,-0.704,-0.706,-0.7054,-0.704,-0.7021,-0.705,-0.706,-0.7064,-0.7007,-0.7007,-0.7006,-0.7006,0,0,-0.715,-0.713,-0.7133,-0.7129,-0.7115,-0.7116,-0.7122,-0.7117,-0.7118,-0.7112,-0.7116,-0.7116,-0.7103,-0.7099,-0.7086,-0.7093,-0.7119,-0.7078,-0.7077,-0.7087,-0.7141,-0.7152,-0.7158,-0.7109,-0.711,-0.711,-0.7142,0,-0.7181,-0.7189,-0.7172,-0.7184,-0.7186,-0.7163,-0.7168,-0.7161,-0.7151,-0.7151,-0.714,-0.714,-0.7123,-0.712,-0.7126,-0.7115,-0.713,-0.7112,-0.7114,-0.7114,-0.7118,-0.7163,-0.7175,-0.7205,-0.7146,-0.7146,-0.7147,0,-0.7218,-0.7214,-0.7226,-0.7212,-0.7212,-0.7217,-0.7212,-0.7212,-0.7203,-0.7196,-0.7192,-0.7177,-0.7182,-0.7163,-0.717,-0.7158,-0.7158,-0.7152,-0.7153,-0.7153,-0.7133,-0.7165,-0.7214,-0.7219,-0.7153,-0.7152,-0.7152,0,-0.7257,-0.7254,-0.7261,-0.7258,-0.7242,-0.7246,-0.724,-0.723,-0.7228,-0.7224,-0.7223,-0.7219,-0.7218,-0.7215,-0.72,-0.7187,-0.7209,-0.7188,-0.7203,-0.7204,-0.7209,-0.7209,-0.726,-0.7208,-0.7207,-0.7207,-0.7207,0,-0.7294,-0.7303,-0.7279,-0.7284,-0.7293,-0.7273,-0.7283,-0.7274,-0.7266,-0.7269,-0.7249,-0.7252,-0.723,-0.7231,-0.7219,-0.7227,-0.7226,-0.7221,-0.7217,-0.7223,-0.7224,-0.7223,-0.7221,-0.7209,-0.7208,-0.7208,-0.7208,0,-0.734,-0.7324,-0.7331,-0.7315,-0.7311,-0.7319,-0.7305,-0.7309,-0.7298,-0.7302,-0.7301,-0.7284,-0.7284,-0.7268,-0.7265,-0.7256,-0.727,-0.7262,-0.7273,-0.7271,-0.7287,-0.7286,-0.734,-0.7346,-0.7289,-0.729,-0.729,0,-0.7365,-0.7372,-0.7356,-0.7357,-0.7351,-0.7352,-0.735,-0.7331,-0.733,-0.7321,-0.7326,-0.7325,-0.7322,-0.7324,-0.7311,-0.7308,-0.7301,-0.732,-0.7301,-0.7307,-0.7303,-0.7303,-0.7304,-0.7325,-0.7326,-0.7326,-0.7327,0,-0.7412,-0.7404,-0.7402,-0.7398,-0.7397,-0.7393,-0.7387,-0.7389,-0.7368,-0.7368,-0.7368,-0.7366,-0.7363,-0.7362,-0.7357,-0.7351,-0.7336,-0.7333,-0.7336,-0.7342,-0.7349,-0.7346,-0.7285,-0.7332,-0.7331,-0.7331,-0.7331,-0.733,-0.7449,-0.7454,-0.7444,-0.7443,-0.7437,-0.7432,-0.7435,-0.7424,-0.7423,-0.7419,-0.7408,-0.741,-0.7401,-0.7393,-0.7388,-0.7389,-0.738,-0.7385,-0.7386,-0.7388,-0.7391,-0.7348,-0.7388,-0.7388,-0.7388,-0.7388,-0.7388,0,-0.7496,-0.7488,-0.7487,-0.748,-0.748,-0.7465,-0.7458,-0.7459,-0.7461,-0.7453,-0.7452,-0.7452,-0.7451,-0.7438,-0.7435,-0.7439,-0.7432,-0.7439,-0.7439,-0.7438,-0.7399,-0.7397,-0.7445,-0.7445,-0.7445,-0.7445,-0.7445,-0.7445,-0.752,-0.7528,-0.7518,-0.7522,-0.7515,-0.7516,-0.7514,-0.751,-0.7504,-0.7505,-0.7504,-0.7495,-0.7486,-0.7482,-0.7481,-0.7477,-0.7478,-0.7487,-0.7481,-0.7446,-0.744,-0.7435,-0.7433,-0.7487,-0.7487,-0.752,-0.752,-0.752]},{"header":{"parameterUnit":"m.s-1","parameterCategory":1,"la1":30.2991,"la2":30.254,"lo1":-89.0895,"lo2":-89.0444,"dy":0.0017,"dx":0.0017,"nx":28,"ny":28,"refTime":"2024-04-26T03:00:00:Z","depth":0,"parameterNumber":3,"parameterNumberName":"V-component_of_WINDS"},"data":[0,0,0,0,0,0,0,0,0,0,0,0,0,0,0,0,0,0,0,0,0,0,0,0,0,0,0,0,0,0,0,0,0,0,0,0,0,0,0,0,0,0,0,0,0,0,0,0,0,0,0,0,0,0,0,0,0,0,4.083,4.083,0,4.0836,4.0836,4.0836,4.0759,4.0756,4.0754,4.0752,4.0758,4.076,4.0762,0,0,0,0,0,0,0,0,0,0,0,0,0,4.075,4.0752,4.083,4.083,4.083,4.0836,4.0836,4.0836,4.0759,4.0756,4.0754,4.0751,4.0757,4.076,4.0762,0,0,0,0,0,0,0,0,0,0,0,0,0,4.0773,4.0752,4.083,4.0792,4.0789,4.0836,4.0836,4.0836,4.0759,4.0756,4.0753,4.075,4.0756,4.076,4.0763,4.0846,0,0,4.0772,4.0774,0,0,0,0,0,0,0,0,4.0772,4.0776,4.0798,4.0795,4.0791,4.0793,4.081,4.0839,4.076,4.0771,4.0752,4.0749,4.0772,4.0774,4.0782,4.0846,4.0846,4.0773,4.0775,4.0776,4.0777,0,0,0,0,0,0,0,4.077,4.0775,4.0832,4.0798,4.0794,4.0774,4.0774,4.0815,4.0789,4.077,4.0764,4.0766,4.077,4.0779,4.0782,4.0847,4.0773,4.0775,4.0777,4.0779,4.0977,4.098,0,0,0,0,0,0,4.0774,4.0775,4.0832,4.0833,4.0774,4.0779,4.0778,4.0796,4.0789,4.0784,4.0768,4.0762,4.0775,4.0778,4.0782,4.0876,4.0776,4.0779,4.0781,4.0973,4.0977,4.0981,0,0,0,0,0,0,4.0773,4.078,4.0832,4.0802,4.0807,4.0783,4.0804,4.0798,4.0807,4.0788,4.0783,4.0783,4.0773,4.0777,4.083,4.0876,4.078,4.0783,4.0969,4.0975,4.0979,4.1068,0,0,0,0,0,0,4.0771,4.078,4.0812,4.0803,4.0809,4.0881,4.0807,4.08,4.0813,4.0804,4.08,4.0796,4.0771,4.0826,4.0833,4.0878,4.0786,4.0965,4.0972,4.0978,4.1061,4.1076,4.1088,0,0,0,0,0,4.0768,4.0837,4.0814,4.0821,4.0849,4.0884,4.0887,4.0857,4.0817,4.0848,4.0835,4.0796,4.087,4.0832,4.0839,4.0886,4.0962,4.097,4.0977,4.1055,4.1073,4.1088,0,0,0,0,0,0,4.0852,4.0836,4.0809,4.0878,4.0883,4.0871,4.0909,4.0877,4.0893,4.0885,4.0846,4.0846,4.0905,4.0901,4.0859,4.0965,4.0909,4.0918,4.0965,4.0982,4.0995,4.0994,4.0788,0,0,0,0,0,4.0879,4.0909,4.0893,4.0955,4.0959,4.0934,4.0948,4.0924,4.0928,4.0929,4.0921,4.0925,4.0949,4.0966,4.0987,4.1061,4.1057,4.1097,4.111,4.1121,4.113,4.1166,4.1183,4.1006,4.1006,4.1005,0,0,4.0934,4.0928,4.095,4.0972,4.0973,4.1004,4.0936,4.0973,4.0995,4.0935,4.0983,4.0978,4.098,4.1043,4.1071,4.1042,4.1178,4.1131,4.114,4.1142,4.1176,4.1192,4.1207,4.1011,4.101,4.1009,0,0,4.105,4.105,4.11,4.1102,4.1104,4.1087,4.1099,4.1092,4.1085,4.1133,4.1088,4.1114,4.1157,4.116,4.1167,4.1282,4.1246,4.129,4.1361,4.1397,4.1411,4.1423,4.1462,4.1477,4.1299,4.1299,4.1299,0,4.1118,4.1164,4.113,4.1169,4.1179,4.1125,4.1175,4.1179,4.1188,4.1196,4.1164,4.1214,4.1213,4.1275,4.1303,4.1311,4.1322,4.129,4.1412,4.1423,4.1434,4.1471,4.1486,4.1304,4.1304,4.1303,4.1303,0,4.1246,4.1278,4.1319,4.1328,4.1343,4.1387,4.1359,4.1378,4.1353,4.1339,4.1388,4.1384,4.1402,4.1415,4.1391,4.1474,4.1455,4.1418,4.136,4.1457,4.1491,4.1505,4.1312,4.131,4.1308,4.1307,0,0,4.1415,4.1404,4.1419,4.1422,4.1419,4.1443,4.1485,4.1502,4.1518,4.1526,4.1559,4.1596,4.156,4.1569,4.1544,4.1577,4.1666,4.1535,4.1534,4.1558,4.1754,4.1781,4.1798,4.1642,4.1645,4.1647,4.1753,0,4.1526,4.1596,4.1566,4.1639,4.1667,4.1616,4.1651,4.1653,4.1641,4.1663,4.165,4.1675,4.1628,4.1632,4.1662,4.1649,4.1704,4.1641,4.1671,4.1672,4.167,4.1816,4.1844,4.1945,4.1766,4.1768,4.177,0,4.1665,4.1678,4.1753,4.1743,4.1754,4.1787,4.1799,4.1821,4.1822,4.181,4.1819,4.1787,4.1826,4.177,4.1822,4.1779,4.179,4.1785,4.1788,4.1789,4.1726,4.1818,4.1976,4.199,4.1791,4.1789,4.1788,0,4.1778,4.1814,4.1863,4.1867,4.1858,4.1881,4.1879,4.1876,4.1888,4.1899,4.1906,4.1922,4.193,4.1943,4.1916,4.1878,4.1971,4.1913,4.1962,4.1963,4.1983,4.1982,4.2143,4.1993,4.1993,4.1993,4.1992,0,4.1905,4.1952,4.1913,4.1943,4.1994,4.1959,4.201,4.2002,4.2,4.2027,4.1984,4.201,4.1974,4.1996,4.1975,4.202,4.2025,4.2016,4.201,4.2019,4.202,4.2024,4.2016,4.1997,4.1996,4.1995,4.1994,0,4.2039,4.2016,4.2065,4.2051,4.2049,4.2087,4.2075,4.2102,4.2086,4.2121,4.2127,4.2103,4.2126,4.2101,4.2123,4.2109,4.217,4.2154,4.2169,4.2164,4.2213,4.2209,4.2382,4.2402,4.2241,4.2243,4.2244,0,4.2121,4.2155,4.2145,4.216,4.2159,4.2184,4.2195,4.2162,4.2175,4.2178,4.2204,4.2224,4.2238,4.2278,4.2262,4.2279,4.2262,4.2322,4.2264,4.2272,4.2261,4.2258,4.2261,4.2333,4.2335,4.2336,4.2338,0,4.2267,4.2252,4.227,4.2284,4.2298,4.2307,4.2313,4.2328,4.2293,4.231,4.2333,4.2344,4.2366,4.2386,4.2398,4.2394,4.236,4.2356,4.2368,4.2377,4.2383,4.2378,4.2199,4.2352,4.235,4.2349,4.2349,4.2348,4.2376,4.2403,4.24,4.2421,4.2421,4.2427,4.2451,4.2438,4.2456,4.2471,4.2451,4.2479,4.2477,4.2489,4.249,4.2511,4.2486,4.2504,4.2508,4.2512,4.2519,4.2381,4.2514,4.2513,4.2513,4.2512,4.2512,0,4.2518,4.2512,4.2532,4.254,4.2557,4.2523,4.2527,4.2542,4.2568,4.2569,4.2583,4.2609,4.2628,4.2614,4.2629,4.2649,4.2634,4.2654,4.2651,4.2651,4.2541,4.2529,4.2666,4.2666,4.2666,4.2666,4.2666,4.2666,4.2593,4.2638,4.2623,4.2667,4.2661,4.2688,4.2693,4.2698,4.2698,4.2729,4.2744,4.2734,4.2729,4.2743,4.2759,4.2754,4.2761,4.2787,4.2776,4.2674,4.2659,4.2644,4.2632,4.2789,4.2789,4.2883,4.2884,4.2885]}]]